Terminal Aerodrome Forecast
Issued by NWS St Louis, MO

Home | Current Version | Previous Version | Text Only | Print | Product List | Glossary On
Versions: 1 2 3 4 5 6 7 8 9 10 11 12 13 14 15 16 17 18 19 20 21 22 23 24 25
852
FTUS43 KLSX 060254 AAB
TAFSTL
TAF AMD
KSTL 060254Z 0603/0706 11008KT P6SM SCT015 BKN250
      TEMPO 0603/0605 BKN015
     FM060600 VRB03KT 5SM BR OVC050
     FM060800 00000KT 4SM BR OVC010
     FM061300 31006KT 4SM BR OVC015
     FM061700 31011G18KT P6SM BKN025
     FM061800 31011G19KT P6SM BKN040
     FM070000 30008KT P6SM SCT200=

USA.gov is the U.S. government's official web portal to all federal, state and local government web resources and services.